sat.trackr.live / text

‹ back to catalog

LEMUR-2-KARENDARRELL

NORAD 64841 · 2025-135BU

PAYLOAD ACTIVE UNKNOWN

§ Identity

Operator
Country
US
Launch date
2025-06-23
Launch site
AFWTR
Launch vehicle
Mass (kg)
RCS (m²)

Purposes: earth_obs

External: N2YO · Heavens-Above · Gunter

§ Orbital elements

Epoch: 2026-09-19T01:33:25.151616Z

Period
95.92 min
Inclination
97.7863°
Eccentricity
0.0009959
Mean motion
15.01274735 rev/d
Perigee alt
556.1 km
Apogee alt
569.9 km
Semi-major
6,941.1 km
B*
4.3465e-4
RAAN
18.2897°
Arg perigee
252.1397°
Mean anomaly
107.8741°
Rev number
6,809

§ Raw data

LEMUR-2-KARENDARRELL1 64841U 25135BU  26262.06487444  .00005533  00000+0  43465-3 0  99942 64841  97.7863  18.2897 0009959 252.1397 107.8741 15.01274735 68097

JSON: /api/v1/satellites/64841 · /tle

For live sub-satellite position, see the globe view (requires WebGL).

§ Visibility from observer

Set your observer location to see the next 7 days of passes ≥ 10°. The values pass through the URL so the page stays shareable.

No JS? Fill the form by hand. The geolocation button needs JavaScript.